Time,TemperatureF,DewpointF,PressureIn,WindDirection,WindDirectionDegrees,WindSpeedMPH,WindSpeedGustMPH,Humidity,HourlyPrecipIn,Conditions,Clouds,dailyrainin,SoftwareType,DateUTC
2013-02-25 00:01:00,34.0,32.0,30.01,North,0,0.0,0.0,92,0.00,,,0.00,,2013-02-25 05:01:00,
2013-02-25 00:11:00,34.0,32.0,30.01,North,0,0.0,0.0,92,0.00,,,0.00,,2013-02-25 05:11:00,
2013-02-25 00:22:00,34.0,32.0,30.01,North,0,0.0,0.0,93,0.00,,,0.00,,2013-02-25 05:22:00,
2013-02-25 00:32:00,33.0,31.0,30.03,North,0,0.0,0.0,93,0.00,,,0.00,,2013-02-25 05:32:00,
2013-02-25 00:42:00,33.0,31.0,30.03,North,0,0.0,0.0,93,0.00,,,0.00,,2013-02-25 05:42:00,
2013-02-25 00:52:00,33.0,31.0,30.03,North,0,0.0,0.0,93,0.00,,,0.00,,2013-02-25 05:52:00,
2013-02-25 01:02:00,32.0,30.0,30.04,North,0,0.0,0.0,93,0.00,,,0.00,,2013-02-25 06:02:00,
2013-02-25 01:11:00,32.0,30.0,30.04,North,0,0.0,0.0,93,0.00,,,0.00,,2013-02-25 06:11:00,
2013-02-25 01:21:00,32.0,30.0,30.04,North,0,0.0,0.0,94,0.00,,,0.00,,2013-02-25 06:21:00,
2013-02-25 01:32:00,32.0,31.0,30.06,North,0,0.0,0.0,95,0.00,,,0.00,,2013-02-25 06:32:00,
2013-02-25 01:42:00,32.0,31.0,30.06,North,0,0.0,0.0,95,0.00,,,0.00,,2013-02-25 06:42:00,
2013-02-25 01:51:00,33.0,31.0,30.06,North,0,0.0,0.0,92,0.00,,,0.00,,2013-02-25 06:51:00,
2013-02-25 02:01:00,34.0,31.0,30.07,North,0,0.0,2.0,88,0.00,,,0.00,,2013-02-25 07:01:00,
2013-02-25 02:11:00,35.0,29.0,30.07,North,0,0.0,4.0,79,0.00,,,0.00,,2013-02-25 07:11:00,
2013-02-25 02:21:00,35.0,29.0,30.07,North,0,0.0,4.0,79,0.00,,,0.00,,2013-02-25 07:21:00,
2013-02-25 02:32:00,37.0,30.0,30.07,North,0,0.0,4.0,76,0.00,,,0.00,,2013-02-25 07:32:00,
2013-02-25 02:42:00,37.0,30.0,30.07,North,0,0.0,4.0,76,0.00,,,0.00,,2013-02-25 07:42:00,
2013-02-25 02:51:00,36.0,29.0,30.08,North,0,0.0,0.0,76,0.00,,,0.00,,2013-02-25 07:51:00,
2013-02-25 03:01:00,36.0,29.0,30.08,North,0,0.0,3.0,77,0.00,,,0.00,,2013-02-25 08:01:00,
2013-02-25 03:11:00,36.0,29.0,30.08,North,0,0.0,0.0,76,0.00,,,0.00,,2013-02-25 08:11:00,
2013-02-25 03:21:00,36.0,29.0,30.08,North,0,0.0,0.0,76,0.00,,,0.00,,2013-02-25 08:21:00,
2013-02-25 03:32:00,35.0,28.0,30.08,North,0,0.0,4.0,76,0.00,,,0.00,,2013-02-25 08:32:00,
2013-02-25 03:41:00,35.0,28.0,30.08,North,0,0.0,4.0,76,0.00,,,0.00,,2013-02-25 08:41:00,
2013-02-25 03:52:00,34.0,28.0,30.06,North,0,0.0,2.0,78,0.00,,,0.00,,2013-02-25 08:52:00,
2013-02-25 04:02:00,34.0,28.0,30.07,North,0,0.0,1.0,77,0.00,,,0.00,,2013-02-25 09:02:00,
2013-02-25 04:12:00,34.0,28.0,30.07,North,0,0.0,1.0,77,0.00,,,0.00,,2013-02-25 09:12:00,
2013-02-25 04:21:00,34.0,27.0,30.09,North,0,0.0,0.0,76,0.00,,,0.00,,2013-02-25 09:21:00,
2013-02-25 04:32:00,34.0,28.0,30.09,North,0,0.0,0.0,77,0.00,,,0.00,,2013-02-25 09:32:00,
2013-02-25 04:42:00,34.0,28.0,30.09,North,0,0.0,0.0,77,0.00,,,0.00,,2013-02-25 09:42:00,
2013-02-25 04:52:00,33.0,27.0,30.10,North,0,0.0,0.0,78,0.00,,,0.00,,2013-02-25 09:52:00,
2013-02-25 05:01:00,33.0,27.0,30.10,North,0,0.0,0.0,78,0.00,,,0.00,,2013-02-25 10:01:00,
2013-02-25 05:11:00,33.0,27.0,30.11,North,0,0.0,0.0,77,0.00,,,0.00,,2013-02-25 10:11:00,
2013-02-25 05:21:00,33.0,27.0,30.11,North,0,0.0,0.0,77,0.00,,,0.00,,2013-02-25 10:21:00,
2013-02-25 05:32:00,33.0,28.0,30.11,North,0,0.0,0.0,80,0.00,,,0.00,,2013-02-25 10:32:00,
2013-02-25 05:42:00,33.0,28.0,30.11,North,0,0.0,0.0,80,0.00,,,0.00,,2013-02-25 10:42:00,
2013-02-25 05:52:00,32.0,26.0,30.12,North,0,0.0,0.0,79,0.00,,,0.00,,2013-02-25 10:52:00,
2013-02-25 06:01:00,33.0,26.0,30.13,North,0,0.0,1.0,75,0.00,,,0.00,,2013-02-25 11:01:00,
2013-02-25 06:11:00,33.0,26.0,30.13,North,0,0.0,1.0,75,0.00,,,0.00,,2013-02-25 11:11:00,
2013-02-25 06:22:00,33.0,26.0,30.13,North,0,0.0,1.0,76,0.00,,,0.00,,2013-02-25 11:22:00,
2013-02-25 06:32:00,32.0,26.0,30.13,North,0,0.0,2.0,78,0.00,,,0.00,,2013-02-25 11:32:00,
2013-02-25 06:42:00,32.0,26.0,30.13,North,0,0.0,2.0,78,0.00,,,0.00,,2013-02-25 11:42:00,
2013-02-25 06:52:00,32.0,25.0,30.14,North,0,0.0,0.0,76,0.00,,,0.00,,2013-02-25 11:52:00,
2013-02-25 07:02:00,32.0,26.0,30.14,North,0,0.0,0.0,77,0.00,,,0.00,,2013-02-25 12:02:00,
2013-02-25 07:11:00,32.0,26.0,30.14,North,0,0.0,0.0,77,0.00,,,0.00,,2013-02-25 12:11:00,
2013-02-25 07:21:00,32.0,27.0,30.14,North,0,0.0,0.0,80,0.00,,,0.00,,2013-02-25 12:21:00,
2013-02-25 07:32:00,31.0,26.0,30.14,North,0,0.0,0.0,81,0.00,,,0.00,,2013-02-25 12:32:00,
2013-02-25 07:42:00,31.0,26.0,30.14,North,0,0.0,0.0,81,0.00,,,0.00,,2013-02-25 12:42:00,
2013-02-25 07:54:00,32.0,26.0,30.14,North,0,0.0,0.0,79,0.00,,,0.00,,2013-02-25 12:54:00,
2013-02-25 08:02:00,32.0,25.0,30.14,North,0,0.0,1.0,76,0.00,,,0.00,,2013-02-25 13:02:00,
2013-02-25 08:12:00,32.0,25.0,30.14,North,0,0.0,1.0,76,0.00,,,0.00,,2013-02-25 13:12:00,
2013-02-25 08:22:00,32.0,25.0,30.15,North,0,0.0,1.0,75,0.00,,,0.00,,2013-02-25 13:22:00,
2013-02-25 08:32:00,33.0,25.0,30.16,North,0,0.0,1.0,73,0.00,,,0.00,,2013-02-25 13:32:00,
2013-02-25 08:42:00,33.0,25.0,30.16,North,0,0.0,1.0,73,0.00,,,0.00,,2013-02-25 13:42:00,
2013-02-25 08:52:00,34.0,25.0,30.18,North,0,0.0,2.0,69,0.00,,,0.00,,2013-02-25 13:52:00,
2013-02-25 09:03:00,34.0,25.0,30.18,North,0,0.0,2.0,69,0.00,,,0.00,,2013-02-25 14:03:00,
2013-02-25 09:17:00,34.0,25.0,30.18,North,0,0.0,2.0,69,0.00,,,0.00,,2013-02-25 14:17:00,
2013-02-25 09:32:00,35.0,24.0,30.19,North,0,0.0,4.0,64,0.00,,,0.00,,2013-02-25 14:32:00,
2013-02-25 09:42:00,35.0,24.0,30.19,North,0,0.0,4.0,64,0.00,,,0.00,,2013-02-25 14:42:00,
2013-02-25 09:52:00,37.0,25.0,30.19,North,0,0.0,6.0,61,0.00,,,0.00,,2013-02-25 14:52:00,
2013-02-25 10:03:00,37.0,24.0,30.20,NW,313,1.0,6.0,58,0.00,,,0.00,,2013-02-25 15:03:00,
2013-02-25 10:11:00,37.0,24.0,30.20,NW,313,1.0,6.0,58,0.00,,,0.00,,2013-02-25 15:11:00,
2013-02-25 10:22:00,38.0,25.0,30.20,North,349,1.0,5.0,59,0.00,,,0.00,,2013-02-25 15:22:00,
2013-02-25 10:32:00,38.0,24.0,30.20,North,0,0.0,3.0,56,0.00,,,0.00,,2013-02-25 15:32:00,
2013-02-25 10:42:00,38.0,24.0,30.20,North,0,0.0,3.0,56,0.00,,,0.00,,2013-02-25 15:42:00,
2013-02-25 10:52:00,39.0,24.0,30.20,NW,326,1.0,6.0,55,0.00,,,0.00,,2013-02-25 15:52:00,
2013-02-25 11:02:00,39.0,24.0,30.19,North,0,0.0,4.0,54,0.00,,,0.00,,2013-02-25 16:02:00,
2013-02-25 11:12:00,39.0,24.0,30.19,North,0,0.0,4.0,54,0.00,,,0.00,,2013-02-25 16:12:00,
2013-02-25 11:22:00,39.0,24.0,30.19,North,0,0.0,4.0,54,0.00,,,0.00,,2013-02-25 16:22:00,
2013-02-25 11:32:00,39.0,24.0,30.19,North,0,0.0,5.0,54,0.00,,,0.00,,2013-02-25 16:32:00,
2013-02-25 11:42:00,39.0,24.0,30.19,North,0,0.0,5.0,54,0.00,,,0.00,,2013-02-25 16:42:00,
2013-02-25 11:52:00,40.0,24.0,30.18,North,0,0.0,3.0,53,0.00,,,0.00,,2013-02-25 16:52:00,
2013-02-25 12:02:00,41.0,24.0,30.18,NNW,340,1.0,4.0,50,0.00,,,0.00,,2013-02-25 17:02:00,
2013-02-25 12:11:00,41.0,24.0,30.18,NNW,340,1.0,4.0,50,0.00,,,0.00,,2013-02-25 17:11:00,
2013-02-25 12:21:00,41.0,25.0,30.18,NE,34,1.0,4.0,52,0.00,,,0.00,,2013-02-25 17:21:00,
2013-02-25 12:32:00,41.0,24.0,30.18,North,0,0.0,3.0,50,0.00,,,0.00,,2013-02-25 17:32:00,
2013-02-25 12:42:00,41.0,24.0,30.18,North,0,0.0,3.0,50,0.00,,,0.00,,2013-02-25 17:42:00,
2013-02-25 12:52:00,42.0,25.0,30.17,North,0,0.0,3.0,50,0.00,,,0.00,,2013-02-25 17:52:00,
2013-02-25 13:01:00,41.0,25.0,30.15,North,0,0.0,8.0,52,0.00,,,0.00,,2013-02-25 18:01:00,
2013-02-25 13:12:00,41.0,25.0,30.15,North,0,0.0,8.0,52,0.00,,,0.00,,2013-02-25 18:12:00,
2013-02-25 13:21:00,42.0,24.0,30.14,NNE,12,1.0,5.0,49,0.00,,,0.00,,2013-02-25 18:21:00,
2013-02-25 13:33:00,42.0,24.0,30.14,SE,128,2.0,5.0,48,0.00,,,0.00,,2013-02-25 18:33:00,
2013-02-25 13:42:00,42.0,24.0,30.14,SE,128,2.0,5.0,48,0.00,,,0.00,,2013-02-25 18:42:00,
2013-02-25 13:52:00,42.0,24.0,30.14,NW,319,2.0,5.0,49,0.00,,,0.00,,2013-02-25 18:52:00,
2013-02-25 14:01:00,42.0,25.0,30.15,North,0,0.0,7.0,50,0.00,,,0.00,,2013-02-25 19:01:00,
2013-02-25 14:11:00,42.0,25.0,30.15,North,0,0.0,7.0,50,0.00,,,0.00,,2013-02-25 19:11:00,
2013-02-25 14:21:00,42.0,24.0,30.15,North,0,0.0,2.0,49,0.00,,,0.00,,2013-02-25 19:21:00,
2013-02-25 14:32:00,42.0,24.0,30.15,North,0,0.0,4.0,49,0.00,,,0.00,,2013-02-25 19:32:00,
2013-02-25 14:42:00,42.0,24.0,30.15,North,0,0.0,4.0,49,0.00,,,0.00,,2013-02-25 19:42:00,
2013-02-25 14:52:00,42.0,24.0,30.15,North,0,0.0,5.0,49,0.00,,,0.00,,2013-02-25 19:52:00,
2013-02-25 15:01:00,43.0,25.0,30.13,North,0,0.0,3.0,48,0.00,,,0.00,,2013-02-25 20:01:00,
2013-02-25 15:11:00,43.0,25.0,30.13,North,0,0.0,3.0,48,0.00,,,0.00,,2013-02-25 20:11:00,
2013-02-25 15:21:00,43.0,25.0,30.13,North,0,0.0,3.0,48,0.00,,,0.00,,2013-02-25 20:21:00,
2013-02-25 15:32:00,43.0,24.0,30.14,ENE,75,2.0,4.0,47,0.00,,,0.00,,2013-02-25 20:32:00,
2013-02-25 15:42:00,43.0,24.0,30.14,ENE,75,2.0,4.0,47,0.00,,,0.00,,2013-02-25 20:42:00,
2013-02-25 15:52:00,43.0,26.0,30.13,North,0,0.0,2.0,50,0.00,,,0.00,,2013-02-25 20:52:00,
2013-02-25 16:01:00,42.0,25.0,30.13,North,0,0.0,2.0,50,0.00,,,0.00,,2013-02-25 21:01:00,
2013-02-25 16:11:00,42.0,25.0,30.13,North,0,0.0,2.0,50,0.00,,,0.00,,2013-02-25 21:11:00,
2013-02-25 16:21:00,42.0,25.0,30.12,North,0,0.0,0.0,51,0.00,,,0.00,,2013-02-25 21:21:00,
2013-02-25 16:32:00,42.0,25.0,30.13,North,0,0.0,3.0,50,0.00,,,0.00,,2013-02-25 21:32:00,
2013-02-25 16:42:00,42.0,25.0,30.13,North,0,0.0,3.0,50,0.00,,,0.00,,2013-02-25 21:42:00,
2013-02-25 16:52:00,42.0,25.0,30.13,North,0,0.0,2.0,51,0.00,,,0.00,,2013-02-25 21:52:00,
2013-02-25 17:01:00,42.0,26.0,30.12,North,0,0.0,1.0,52,0.00,,,0.00,,2013-02-25 22:01:00,
2013-02-25 17:11:00,42.0,26.0,30.12,North,0,0.0,1.0,52,0.00,,,0.00,,2013-02-25 22:11:00,
2013-02-25 17:21:00,41.0,25.0,30.12,North,0,0.0,2.0,52,0.00,,,0.00,,2013-02-25 22:21:00,
2013-02-25 17:32:00,41.0,26.0,30.12,North,0,0.0,1.0,54,0.00,,,0.00,,2013-02-25 22:32:00,
2013-02-25 17:42:00,41.0,26.0,30.12,North,0,0.0,1.0,54,0.00,,,0.00,,2013-02-25 22:42:00,
2013-02-25 17:52:00,41.0,26.0,30.12,North,0,0.0,0.0,54,0.00,,,0.00,,2013-02-25 22:52:00,
2013-02-25 18:01:00,41.0,27.0,30.12,North,0,0.0,0.0,57,0.00,,,0.00,,2013-02-25 23:01:00,
2013-02-25 18:11:00,41.0,27.0,30.12,North,0,0.0,0.0,57,0.00,,,0.00,,2013-02-25 23:11:00,
2013-02-25 18:22:00,40.0,27.0,30.13,North,0,0.0,0.0,59,0.00,,,0.00,,2013-02-25 23:22:00,
2013-02-25 18:32:00,39.0,26.0,30.13,North,0,0.0,0.0,59,0.00,,,0.00,,2013-02-25 23:32:00,
2013-02-25 18:42:00,39.0,26.0,30.13,North,0,0.0,0.0,59,0.00,,,0.00,,2013-02-25 23:42:00,
2013-02-25 18:52:00,38.0,26.0,30.13,North,0,0.0,0.0,62,0.00,,,0.00,,2013-02-25 23:52:00,
2013-02-25 19:01:00,38.0,27.0,30.13,North,0,0.0,0.0,63,0.00,,,0.00,,2013-02-26 00:01:00,
2013-02-25 19:12:00,38.0,27.0,30.13,North,0,0.0,0.0,63,0.00,,,0.00,,2013-02-26 00:12:00,
2013-02-25 19:22:00,37.0,27.0,30.14,North,0,0.0,0.0,66,0.00,,,0.00,,2013-02-26 00:22:00,
2013-02-25 19:32:00,36.0,28.0,30.14,North,0,0.0,0.0,71,0.00,,,0.00,,2013-02-26 00:32:00,
2013-02-25 19:42:00,36.0,28.0,30.14,North,0,0.0,0.0,71,0.00,,,0.00,,2013-02-26 00:42:00,
2013-02-25 19:52:00,35.0,28.0,30.14,North,0,0.0,0.0,74,0.00,,,0.00,,2013-02-26 00:52:00,
2013-02-25 20:02:00,35.0,28.0,30.15,North,0,0.0,0.0,76,0.00,,,0.00,,2013-02-26 01:02:00,
2013-02-25 20:11:00,35.0,28.0,30.15,North,0,0.0,0.0,76,0.00,,,0.00,,2013-02-26 01:11:00,
2013-02-25 20:21:00,33.0,26.0,30.15,North,0,0.0,0.0,75,0.00,,,0.00,,2013-02-26 01:21:00,
2013-02-25 20:32:00,33.0,27.0,30.14,North,0,0.0,0.0,77,0.00,,,0.00,,2013-02-26 01:32:00,
2013-02-25 20:42:00,33.0,27.0,30.14,North,0,0.0,0.0,77,0.00,,,0.00,,2013-02-26 01:42:00,
2013-02-25 20:52:00,32.0,26.0,30.15,North,0,0.0,0.0,78,0.00,,,0.00,,2013-02-26 01:52:00,
2013-02-25 21:01:00,32.0,27.0,30.15,North,0,0.0,0.0,82,0.00,,,0.00,,2013-02-26 02:01:00,
2013-02-25 21:11:00,32.0,27.0,30.15,North,0,0.0,0.0,82,0.00,,,0.00,,2013-02-26 02:11:00,
2013-02-25 21:21:00,31.0,26.0,30.15,North,0,0.0,0.0,83,0.00,,,0.00,,2013-02-26 02:21:00,
2013-02-25 21:32:00,31.0,26.0,30.15,North,0,0.0,0.0,81,0.00,,,0.00,,2013-02-26 02:32:00,
2013-02-25 21:42:00,31.0,26.0,30.15,North,0,0.0,0.0,81,0.00,,,0.00,,2013-02-26 02:42:00,
2013-02-25 21:52:00,30.0,25.0,30.15,North,0,0.0,0.0,81,0.00,,,0.00,,2013-02-26 02:52:00,
2013-02-25 22:02:00,30.0,25.0,30.16,North,0,0.0,0.0,82,0.00,,,0.00,,2013-02-26 03:02:00,
2013-02-25 22:11:00,30.0,25.0,30.16,North,0,0.0,0.0,82,0.00,,,0.00,,2013-02-26 03:11:00,
2013-02-25 22:21:00,30.0,26.0,30.14,North,0,0.0,0.0,84,0.00,,,0.00,,2013-02-26 03:21:00,
2013-02-25 22:32:00,30.0,26.0,30.14,North,0,0.0,0.0,85,0.00,,,0.00,,2013-02-26 03:32:00,
2013-02-25 22:42:00,30.0,26.0,30.14,North,0,0.0,0.0,85,0.00,,,0.00,,2013-02-26 03:42:00,
2013-02-25 22:52:00,30.0,26.0,30.14,North,0,0.0,0.0,85,0.00,,,0.00,,2013-02-26 03:52:00,
2013-02-25 23:01:00,30.0,26.0,30.13,North,0,0.0,0.0,86,0.00,,,0.00,,2013-02-26 04:01:00,
2013-02-25 23:11:00,30.0,26.0,30.13,North,0,0.0,0.0,86,0.00,,,0.00,,2013-02-26 04:11:00,
2013-02-25 23:22:00,30.0,26.0,30.12,North,0,0.0,0.0,86,0.00,,,0.00,,2013-02-26 04:22:00,
2013-02-25 23:32:00,30.0,26.0,30.13,North,0,0.0,0.0,86,0.00,,,0.00,,2013-02-26 04:32:00,
2013-02-25 23:42:00,30.0,26.0,30.13,North,0,0.0,0.0,86,0.00,,,0.00,,2013-02-26 04:42:00,
2013-02-25 23:52:00,30.0,27.0,30.12,North,0,0.0,0.0,88,0.00,,,0.00,,2013-02-26 04:52:00,